Whiteman AFB, MO

5:28 PM CST on November 11, 2019 (GMT -0600)
Whiteman Air Force Base

Weather History for KSZL - May, 2019

Change the Weather History Date:

Monday, May 6, 2019

  Actual Average Record
Temperature  
Mean Temperature 68 °F -  
Max Temperature 77 °F 71 °F 86 °F (2014)
Min Temperature 59 °F 51 °F 39 °F (2011)
Cooling Degree Days 3    
Growing Degree Days 18 (Base 50)    
Moisture  
Dew Point 59 °F    
Average Humidity 77    
Maximum Humidity 100    
Minimum Humidity 50    
Precipitation  
Precipitation 0.16 in - - ()
Sea Level Pressure  
Sea Level Pressure 29.92 in    
Wind  
Wind Speed 6 mph (SSW)    
Max Wind Speed 21 mph    
Max Gust Speed -    
Visibility 10 miles    
Events Rain , Thunderstorm    
Averages and records for this station are not official NWS values.
T = Trace of Precipitation, MM = Missing Value Source: NWS Daily Summary

Daily Weather History Graph

Daily Weather History Graph

Search for Another Location

Airport or City:

Astronomy

May. 06, 2019 Rise Set
Actual Time 6:11 AM CDT 8:11 PM CDT
Civil Twilight 5:42 AM CDT 8:40 PM CDT
Nautical Twilight 5:06 AM CDT 9:15 PM CDT
Astronomical Twilight 4:28 AM CDT 9:54 PM CDT
Moon 7:34 AM CDT (5/6) 10:08 PM CDT (5/6)
Length of Visible Light 14h 58m
Length of Day
13h 59m
Waxing Crescent, 3% of the Moon is Illuminated
May 6
Waxing Crescent
May 11
First Quarter
May 18
Full
May 26
Last Quarter
Jun 3
New

Hourly Weather History & Observations

Time (CDT) Temp. Dew Point Humidity Pressure Visibility Wind Dir Wind Speed Gust Speed Precip Events Conditions
12:56 AM 61.2 °F 54.0 °F 77% 29.85 in 10.0 mi SSE 4.6 mph - N/A   Overcast
1:56 AM 60.1 °F 54.9 °F 83% 29.85 in 10.0 mi SSE 3.5 mph - N/A   Overcast
2:56 AM 60.4 °F 55.2 °F 83% 29.86 in 10.0 mi Calm Calm - N/A   Overcast
3:56 AM 60.3 °F 55.4 °F 84% 29.86 in 10.0 mi South 6.9 mph - N/A   Overcast
4:56 AM 59.9 °F 55.8 °F 86% 29.85 in 10.0 mi South 8.1 mph - N/A   Overcast
5:31 AM 60.8 °F 57.2 °F 88% 29.85 in 10.0 mi South 8.1 mph - N/A   Light Drizzle
5:42 AM 59.0 °F 57.2 °F 94% 29.85 in 10.0 mi South 8.1 mph - N/A   Mostly Cloudy
5:56 AM 59.9 °F 56.3 °F 88% 29.84 in 10.0 mi South 8.1 mph - N/A   Mostly Cloudy
6:56 AM 59.4 °F 59.0 °F 99% 29.88 in 10.0 mi South 4.6 mph - N/A   Mostly Cloudy
7:56 AM 61.7 °F 60.8 °F 97% 29.92 in 10.0 mi South 4.6 mph - N/A   Mostly Cloudy
8:56 AM 63.3 °F 61.5 °F 94% 29.94 in 10.0 mi South 3.5 mph - N/A   Mostly Cloudy
9:56 AM 67.1 °F 61.7 °F 83% 29.95 in 10.0 mi SSW 3.5 mph - N/A   Mostly Cloudy
10:56 AM 71.2 °F 59.2 °F 66% 29.96 in 10.0 mi WSW 9.2 mph - N/A   Mostly Cloudy
11:56 AM 74.3 °F 59.9 °F 61% 29.97 in 10.0 mi South 5.8 mph - N/A   Scattered Clouds
12:56 PM 75.0 °F 57.7 °F 55% 29.95 in 10.0 mi SW 6.9 mph - N/A   Scattered Clouds
1:56 PM 75.9 °F 59.0 °F 56% 29.94 in 10.0 mi SSW 11.5 mph - N/A   Scattered Clouds
2:56 PM 76.1 °F 58.6 °F 55% 29.92 in 10.0 mi South 10.4 mph - N/A   Scattered Clouds
3:56 PM 76.8 °F 59.4 °F 55% 29.90 in 10.0 mi SE 9.2 mph - N/A   Scattered Clouds
4:56 PM 77.4 °F 57.2 °F 50% 29.90 in 10.0 mi South 11.5 mph - N/A   Scattered Clouds
5:56 PM 76.3 °F 58.5 °F 54% 29.91 in 10.0 mi South 11.5 mph - N/A   Scattered Clouds
6:56 PM 74.7 °F 59.4 °F 59% 29.92 in 10.0 mi South 6.9 mph - N/A   Mostly Cloudy
8:47 PM 71.6 °F 60.8 °F 69% 29.96 in 10.0 mi WNW 4.6 mph - N/A   Light Drizzle
8:56 PM 70.7 °F 61.5 °F 73% 29.99 in 10.0 mi WNW 4.6 mph - 0.00 in   Overcast
9:02 PM 71.6 °F 60.8 °F 69% 30.00 in 10.0 mi NW 5.8 mph - N/A Rain Light Rain
9:09 PM 69.8 °F 62.6 °F 78% 30.00 in 10.0 mi NNW 4.6 mph - N/A Rain , Thunderstorm Light Rain
9:17 PM 68.0 °F 66.2 °F 94% 30.01 in 10.0 mi NNW 10.4 mph - N/A Rain , Thunderstorm Light Thunderstorms and Rain
9:58 PM 63.7 °F 63.7 °F 100% 30.02 in 5.0 mi Calm Calm - 0.16 in Rain , Thunderstorm Light Thunderstorms and Rain
11:31 PM 62.6 °F 60.8 °F 94% 29.92 in 10.0 mi South 20.7 mph - N/A Rain Light Rain
11:56 PM 63.1 °F 60.1 °F 90% 29.94 in 10.0 mi South 12.7 mph - 0.00 in Rain Light Rain